Vertical_Velocity
-1 -1 -1 -1 -1 -1 -1 -1 -1 -1 -2 -2 -2 -2 -2 -2 -2 -1 -0 -0 -0 -0 -1 -2 -3 -4 -5 -6 -6 -6 -6 -5 -4 -3 -3 -3 -3 -4 -4 -4 -4 -4 -3 -3 -3 -3 -2 -1 -1 -1 -2 -2 -2 -3 -3 -3 -3 -3 -3 -2 -2 -2 -1 -1 -1 -1 -1 -1 -1 -1 -1 -1 -2 -2 -3 -3 -3 -2 -2 -2 -2 -2 -2 -2 -2 -2
-1 -1 -0 -0 -0 -1 -1 -1 -1 -0 -1 -1 -2 -2 -3 -3 -3 -3 -2 -2 -2 -2 -2 -3 -4 -4 -6 -6 -6 -5 -5 -5 -4 -4 -3 -3 -4 -4 -4 -4 -4 -4 -3 -4 -4 -4 -3 -2 -1 -2 -2 -2 -3 -3 -3 -3 -3 -3 -3 -3 -2 -2 -2 -1 -1 -1 -1 -1 -1 -1 -1 -1 -2 -2 -2 -2 -2 -2 -2 -2 -2 -2 -2 -2 -1 -1
-1 -1 -1 -0 -0 -0 -0 -1 -1 -1 -1 -1 -2 -2 -3 -3 -3 -3 -4 -4 -4 -4 -4 -4 -4 -4 -4 -5 -5 -5 -4 -4 -4 -4 -4 -4 -4 -4 -4 -4 -4 -4 -4 -4 -4 -4 -3 -2 -2 -2 -2 -3 -3 -3 -3 -3 -3 -3 -3 -3 -2 -2 -2 -2 -1 -1 -1 -1 -1 -1 -1 -1 -1 -1 -1 -1 -2 -2 -2 -1 -1 -2 -2 -2 -1 -1
-0 -1 -1 -1 -0 -0 0 -0 -0 -1 -1 -1 -2 -2 -2 -3 -3 -4 -4 -4 -5 -6 -6 -5 -4 -4 -4 -4 -4 -4 -4 -4 -4 -4 -4 -4 -4 -4 -4 -4 -4 -4 -4 -4 -5 -4 -4 -3 -3 -3 -3 -3 -3 -3 -3 -4 -3 -3 -3 -3 -2 -2 -2 -2 -2 -2 -2 -1 -1 -1 -1 -1 -1 -1 -1 -2 -2 -2 -2 -1 -1 -1 -2 -2 -2 -2
-0 -0 -1 -1 -1 -1 -1 -0 -0 -1 -1 -2 -2 -2 -1 -2 -2 -4 -5 -6 -6 -6 -6 -6 -4 -3 -2 -3 -3 -4 -4 -4 -5 -4 -4 -4 -4 -4 -4 -4 -4 -4 -5 -5 -5 -5 -4 -3 -3 -3 -3 -3 -3 -3 -4 -4 -3 -3 -3 -2 -2 -2 -2 -2 -2 -2 -2 -2 -2 -2 -1 -1 -1 -1 -2 -2 -2 -2 -2 -2 -2 -2 -2 -2 -2 -2
-0 -0 -0 -1 -1 -1 -1 -0 -0 -1 -1 -2 -2 -1 -1 -1 -2 -3 -5 -6 -6 -6 -6 -5 -4 -3 -1 -1 -2 -4 -4 -5 -5 -5 -4 -4 -4 -4 -4 -4 -4 -4 -5 -6 -6 -5 -4 -4 -4 -3 -3 -4 -4 -4 -4 -4 -3 -3 -3 -2 -2 -2 -2 -3 -3 -2 -2 -2 -2 -2 -2 -1 -2 -2 -1 -1 -2 -2 -2 -2 -2 -2 -2 -1 -2 -2
-1 -1 -0 -0 -0 -1 -0 -0 0 0 -0 -1 -1 -1 -2 -2 -3 -3 -3 -3 -3 -3 -3 -4 -4 -4 -3 -2 -2 -3 -6 -6 -5 -4 -4 -4 -4 -4 -4 -4 -4 -5 -5 -6 -6 -5 -4 -4 -4 -4 -4 -4 -4 -4 -4 -3 -3 -3 -2 -2 -2 -2 -2 -3 -3 -2 -2 -2 -2 -2 -2 -2 -2 -2 -1 -1 -2 -2 -2 -2 -2 -2 -1 -1 -1 -1
-1 -1 -1 -0 -0 -1 -1 -1 -0 0 1 0 -1 -1 -2 -3 -4 -4 -3 -2 -1 -0 -0 -1 -2 -3 -4 -3 -3 -3 -5 -7 -7 -6 -3 -3 -3 -4 -4 -4 -4 -5 -6 -6 -6 -5 -4 -4 -4 -4 -4 -4 -4 -4 -4 -3 -3 -3 -2 -2 -2 -2 -3 -3 -2 -2 -2 -2 -2 -1 -1 -1 -2 -2 -1 -1 -2 -2 -3 -3 -3 -2 -2 -1 -1 -1
-0 -1 -1 -0 -0 -0 -1 -2 -1 -1 0 0 -0 -1 -1 -1 -1 -1 -1 -1 -1 -0 0 1 2 2 0 -2 -3 -4 -3 -5 -7 -8 -7 -4 -3 -3 -4 -4 -4 -4 -5 -6 -5 -5 -4 -4 -4 -4 -4 -4 -3 -3 -3 -3 -3 -2 -2 -2 -2 -2 -2 -2 -2 -2 -1 -1 -1 -1 -1 -1 -1 -1 -1 -1 -2 -2 -3 -3 -3 -3 -2 -2 -2 -1
-0 0 -0 -0 -0 0 -0 -1 -2 -2 -1 -0 0 1 2 3 3 3 3 2 1 0 0 1 3 4 6 4 2 -1 -3 -4 -5 -7 -8 -7 -6 -5 -4 -4 -4 -4 -5 -5 -5 -4 -3 -4 -4 -3 -3 -3 -3 -2 -2 -2 -2 -2 -2 -2 -2 -2 -2 -2 -2 -1 -1 -1 -1 -1 -1 -1 -1 -1 -1 -1 -1 -2 -2 -3 -3 -3 -3 -3 -2 -2
-0 -0 0 0 -0 -0 0 -0 -1 -1 -1 -1 -1 -0 1 2 3 3 3 3 3 3 2 1 2 4 7 8 8 6 2 -1 -4 -5 -4 -3 -3 -3 -4 -4 -4 -4 -4 -5 -5 -4 -3 -3 -3 -3 -3 -2 -2 -2 -1 -2 -2 -2 -2 -2 -2 -2 -2 -1 -1 -1 -1 -0 -0 -0 -0 -1 -1 -1 -1 -1 -1 -1 -2 -2 -3 -3 -3 -3 -2 -2
-0 0 0 0 -0 -0 -1 -1 -1 -1 -0 -1 -1 -2 -3 -2 -0 1 1 1 2 3 3 3 3 4 8 10 10 8 6 2 -1 -4 -5 -2 0 1 0 -2 -2 -2 -2 -3 -4 -4 -3 -2 -2 -3 -2 -2 -1 -1 -1 -2 -2 -2 -2 -2 -2 -2 -1 -1 -1 -1 -0 -0 -0 -0 -0 -0 -0 -0 -1 -1 -1 -1 -1 -2 -2 -3 -3 -3 -2 -2
0 0 0 -0 -0 -1 -1 -1 -2 -2 -1 -1 -1 -1 -2 -2 -1 -0 0 -0 -0 1 2 2 1 2 6 10 10 8 4 2 0 -2 -5 -5 -2 1 3 0 -2 -3 -2 -1 -2 -3 -3 -1 -1 -1 -1 -1 -1 -1 -2 -2 -2 -3 -3 -2 -2 -2 -1 -1 -1 -0 -0 -0 0 -0 -0 -0 -0 -0 -0 -0 -0 -0 -1 -1 -2 -2 -2 -2 -2 -2
-0 -0 -0 -1 -1 -1 -1 -1 -1 -2 -2 -1 -1 -0 0 -0 -0 -1 -1 -1 -1 -1 1 2 1 -0 -1 3 6 8 5 1 0 0 -0 -3 -3 -2 1 1 -2 -4 -5 -3 -2 -3 -4 -3 -2 -1 -1 -1 -2 -2 -2 -2 -3 -3 -3 -2 -2 -2 -1 -1 -1 -1 -0 -0 0 -0 -0 -0 -0 -0 -0 0 0 0 -0 -1 -1 -1 -2 -2 -2 -2
-0 -1 -1 -1 -1 -1 -1 -1 -1 -1 -2 -1 -1 -1 -1 -1 -2 -2 -2 -2 -2 -1 -0 2 2 1 -4 -4 -1 2 4 2 0 -0 1 2 1 -0 0 1 1 -2 -5 -5 -4 -3 -3 -3 -4 -3 -3 -3 -3 -3 -3 -3 -3 -3 -2 -2 -2 -2 -1 -1 -1 -1 -1 -0 -0 0 0 0 -0 -0 -0 0 0 0 0 -0 -0 -1 -1 -1 -1 -1
-1 -1 -1 -1 -1 -1 -1 -1 -1 -1 -1 -1 -1 -1 -1 -2 -2 -2 -2 -2 -2 -2 -2 -2 -1 -1 -3 -5 -5 -4 -2 -1 -0 -1 -0 1 2 2 1 1 2 1 -1 -4 -4 -4 -3 -3 -3 -4 -4 -4 -4 -4 -3 -3 -3 -2 -2 -2 -2 -2 -2 -2 -2 -2 -1 -1 -1 -0 -0 -0 -0 -0 -0 0 0 0 0 0 0 0 -0 -1 -1 -1
-1 -1 -1 -1 -1 -1 -1 -1 -1 -1 -1 -1 -1 -1 -1 -2 -2 -2 -2 -2 -3 -3 -3 -4 -5 -6 -5 -6 -7 -6 -3 -2 -0 1 2 1 1 1 2 0 -0 -1 -2 -2 -3 -3 -4 -4 -4 -4 -4 -4 -4 -4 -3 -3 -2 -2 -2 -2 -2 -2 -3 -3 -3 -3 -2 -2 -1 -1 -0 -0 -0 -0 -0 -0 0 0 0 0 0 0 0 -0 -0 -1
-1 -1 -1 -1 -1 -1 -1 -1 -1 -1 -1 -1 -1 -2 -2 -3 -3 -2 -2 -3 -4 -4 -6 -6 -7 -7 -7 -8 -8 -6 -3 -3 -2 0 3 4 3 3 3 2 1 -1 -2 -2 -2 -2 -3 -4 -5 -5 -5 -5 -4 -4 -3 -2 -2 -2 -2 -2 -2 -3 -3 -3 -3 -4 -3 -3 -2 -1 -1 -0 -0 -0 -1 -0 -0 0 0 0 0 0 0 -0 -0 -0
-1 -1 -0 -1 -1 -2 -1 -1 -1 -1 -1 -1 -1 -1 -2 -2 -2 -2 -2 -2 -3 -4 -5 -6 -7 -8 -7 -7 -7 -6 -4 -3 -3 -2 -0 1 2 3 5 4 3 2 1 -1 -2 -2 -2 -2 -3 -4 -4 -4 -4 -3 -3 -2 -2 -2 -2 -2 -3 -3 -3 -3 -3 -4 -4 -4 -3 -2 -2 -1 -1 -1 -1 -1 -1 -0 -0 0 0 0 0 -0 -0 -0
-1 -1 -0 -1 -1 -2 -2 -2 -1 -1 -1 -1 -1 -1 -0 -1 -1 -1 -1 -1 -2 -3 -4 -5 -7 -8 -8 -8 -7 -6 -4 -2 -1 0 1 0 -0 0 3 4 4 4 4 2 -0 -2 -3 -2 -2 -3 -3 -3 -3 -2 -2 -2 -2 -3 -3 -3 -3 -3 -3 -3 -3 -3 -4 -4 -4 -3 -2 -2 -1 -1 -1 -1 -1 -1 -0 -0 -0 0 0 0 -0 -0
-2 -1 -1 -1 -1 -1 -2 -2 -2 -2 -1 -1 -2 -2 -2 -1 -1 -1 -1 -1 -2 -4 -6 -7 -8 -8 -6 -4 -2 -1 -0 -1 -1 -1 1 4 3 1 1 3 4 4 5 4 3 0 -2 -2 -2 -2 -2 -2 -2 -2 -2 -2 -3 -3 -4 -4 -4 -3 -3 -2 -2 -2 -3 -3 -3 -3 -3 -2 -2 -1 -1 -1 -1 -1 -1 -0 -0 -0 0 0 -0 -0
-1 -1 -2 -1 -1 -1 -1 -1 -1 -1 -1 -1 -2 -2 -3 -3 -3 -3 -3 -3 -4 -4 -4 -4 -3 -2 -1 1 3 3 2 0 -2 -4 -4 0 3 4 2 4 5 4 4 4 4 4 3 1 1 0 0 -1 -1 -2 -2 -2 -3 -3 -3 -3 -3 -3 -3 -2 -2 -2 -2 -2 -3 -3 -3 -2 -2 -1 -1 -1 -1 -1 -1 -1 -0 -0 0 0 0 -0
-1 -1 -1 -1 -1 -0 0 0 0 0 0 -0 -0 -1 -1 -1 -1 -2 -2 -2 -1 0 2 4 4 3 1 -1 -3 -3 -2 -1 -1 -2 -4 -3 -1 -0 1 4 6 6 5 3 3 5 6 4 4 3 4 2 1 -1 -2 -2 -2 -2 -2 -2 -2 -2 -2 -2 -2 -2 -2 -2 -2 -3 -3 -2 -2 -1 -1 -1 -1 -1 -1 -1 -0 -0 0 0 0 0
-1 -1 -1 -0 -0 0 1 1 1 1 1 1 0 -0 -1 -1 -0 -0 1 2 3 4 5 4 2 0 -2 -4 -6 -6 -5 -3 -2 -1 -0 0 -0 -1 -2 -1 2 4 5 4 3 3 4 5 5 5 5 4 3 1 -1 -2 -2 -2 -2 -2 -2 -2 -2 -2 -2 -2 -1 -2 -2 -2 -3 -3 -2 -1 -1 -0 -1 -1 -1 -1 -0 0 0 1 1 0
-1 -0 0 1 1 1 1 1 1 1 0 0 -0 -0 -1 -1 -1 -1 -0 1 1 0 -0 -2 -3 -4 -5 -4 -4 -3 -2 -1 -1 -1 -1 0 1 0 -2 -3 -2 -0 2 4 4 4 3 4 4 4 4 3 2 0 -1 -2 -2 -3 -3 -2 -2 -2 -2 -2 -2 -1 -1 -1 -2 -2 -3 -3 -2 -2 -1 -0 -0 -0 -0 -0 0 0 1 1 1 1
0 1 1 1 1 1 1 0 -0 -1 -1 -1 -1 -0 -1 -1 -2 -3 -3 -3 -4 -4 -4 -3 -2 -1 -2 -3 -3 -3 -1 0 1 -0 -2 -3 -2 -1 -2 -4 -4 -2 1 4 4 4 3 4 3 2 -0 -1 -2 -2 -2 -2 -2 -2 -2 -2 -2 -1 -1 -1 -1 -1 -1 -1 -1 -2 -2 -3 -3 -2 -1 -0 0 1 0 0 0 0 1 1 1 1
1 1 1 1 0 -0 -1 -2 -2 -2 -2 -2 -1 -1 -1 -1 -2 -3 -4 -4 -4 -4 -4 -3 -2 -0 0 -1 -2 -2 -1 1 1 -0 -2 -4 -4 -4 -4 -4 -4 -3 -1 3 5 6 4 2 0 -2 -4 -5 -5 -4 -2 -1 -0 0 0 -0 -0 -0 -1 -1 -1 -1 -0 -0 -0 -0 -1 -2 -3 -3 -2 -1 0 1 1 1 1 1 1 1 1 1
1 0 -0 -1 -1 -2 -3 -3 -3 -2 -2 -1 -1 -1 -1 -1 -2 -3 -3 -3 -3 -3 -3 -3 -3 -2 -2 -1 -1 -2 -2 -1 -0 -1 -3 -4 -5 -5 -5 -5 -5 -4 -2 1 6 8 7 2 -2 -4 -5 -5 -4 -3 -2 -0 1 2 2 2 1 0 0 0 0 0 0 1 1 1 0 -1 -2 -2 -3 -2 -0 1 2 1 1 1 1 1 1 1
-0 -1 -1 -2 -2 -2 -3 -2 -2 -1 -0 0 0 0 0 -0 -0 -1 -1 -2 -2 -2 -1 -1 -2 -2 -2 -1 -0 -1 -5 -6 -5 -4 -3 -4 -3 -3 -3 -4 -6 -7 -7 -4 1 7 11 6 1 -3 -4 -4 -3 -3 -2 -1 -1 0 1 2 1 1 1 0 1 1 1 2 2 2 2 1 0 -1 -2 -2 -1 0 2 2 2 1 1 1 0 0
-1 -2 -2 -2 -2 -2 -1 -1 0 1 1 1 1 1 0 0 -0 -0 -1 -1 -1 -1 -0 -0 -1 -1 -3 -3 -3 -3 -4 -6 -6 -6 -4 -4 -4 -4 -3 -2 -4 -6 -10 -12 -11 -5 6 11 9 5 0 -1 -2 -3 -3 -2 -2 -2 -1 0 1 1 1 1 1 2 2 3 3 3 3 3 2 0 -1 -2 -2 -1 1 2 2 1 1 1 0 0
-2 -2 -2 -2 -1 -1 0 1 1 1 1 0 -0 -1 -2 -2 -2 -1 -1 -1 0 1 1 0 -0 -1 -3 -6 -7 -7 -4 -3 -3 -4 -4 -4 -4 -4 -5 -4 -4 -4 -6 -11 -15 -17 -14 -3 6 11 8 3 0 -2 -2 -2 -2 -2 -2 -1 -1 0 2 2 2 2 3 4 4 4 4 4 3 2 1 -1 -1 -1 -0 1 1 1 1 0 0 0
-2 -2 -1 -1 -0 1 1 1 0 -0 -1 -2 -3 -4 -4 -3 -2 -2 -1 -0 0 0 0 0 0 -1 -2 -4 -6 -7 -6 -4 -3 -3 -4 -4 -4 -5 -5 -5 -4 -4 -3 -4 -7 -11 -17 -15 -7 3 9 6 3 0 -1 -1 -1 -2 -2 -2 -1 -0 1 2 3 2 3 4 4 5 5 5 4 3 2 0 -1 -1 -0 0 1 1 0 0 0 0
-2 -1 -1 0 0 1 1 0 -1 -2 -3 -4 -4 -4 -4 -4 -3 -2 -1 -1 -1 -1 -1 -2 -2 -2 -1 -1 -2 -3 -5 -6 -5 -5 -5 -6 -6 -6 -5 -5 -5 -4 -3 -2 -2 -3 -5 -10 -10 -6 0 5 6 4 0 -1 -1 -2 -2 -2 -1 -1 0 2 2 2 3 4 5 5 6 6 6 4 3 1 0 -1 -1 0 1 1 0 -0 -0 -0
-1 -1 -0 0 0 -0 -1 -1 -2 -3 -3 -4 -4 -3 -3 -3 -3 -2 -2 -2 -2 -2 -3 -4 -4 -5 -4 -3 -1 -1 -2 -4 -6 -6 -6 -6 -6 -5 -5 -5 -6 -6 -6 -5 -4 -2 -2 -3 -5 -7 -7 -1 4 7 4 1 -1 -1 -1 -1 -1 -1 -1 0 1 2 2 3 4 5 6 6 6 5 4 2 1 -0 -1 -0 0 1 1 0 -0 -0
-1 -0 0 -0 -1 -1 -2 -3 -3 -3 -3 -3 -3 -2 -2 -2 -2 -2 -3 -3 -3 -3 -3 -4 -4 -5 -6 -6 -4 -3 -1 -2 -4 -5 -6 -6 -5 -5 -5 -6 -7 -8 -8 -7 -6 -5 -5 -3 -2 -2 -4 -5 -1 4 6 5 3 1 1 1 -0 -1 -2 -1 -0 0 1 2 3 4 5 6 6 5 4 2 1 -0 -1 -0 0 1 1 1 0 0
-0 -0 -0 -1 -1 -2 -3 -3 -3 -3 -2 -2 -2 -1 -1 -1 -2 -2 -3 -3 -4 -4 -4 -4 -4 -4 -4 -4 -5 -5 -3 -3 -3 -5 -6 -5 -6 -6 -6 -6 -7 -9 -10 -10 -9 -7 -7 -5 -3 -1 -0 -4 -5 -3 1 5 6 5 2 1 -0 -1 -1 -1 -1 -1 -0 1 2 3 4 4 5 4 4 3 1 0 -0 -0 0 1 1 1 1 1
-0 -0 -1 -1 -1 -2 -2 -2 -2 -1 -1 -0 -0 -0 -1 -2 -2 -2 -2 -2 -3 -4 -4 -3 -3 -3 -3 -4 -4 -5 -5 -5 -5 -5 -6 -6 -6 -7 -7 -6 -7 -8 -9 -10 -10 -10 -9 -9 -8 -6 -2 -0 -1 -3 -4 -1 2 4 4 1 -1 -1 -1 -1 -1 -1 -1 -0 0 1 2 2 3 3 3 2 2 1 1 1 1 2 2 2 1 1
-1 -1 -1 -1 -1 -1 -1 -1 -1 -1 0 0 1 0 -0 -1 -1 -2 -1 -1 -2 -2 -3 -3 -3 -2 -1 -1 -2 -4 -5 -6 -5 -5 -6 -6 -7 -7 -7 -6 -5 -4 -5 -6 -7 -8 -9 -10 -12 -12 -10 -4 0 2 -0 -3 -3 -1 2 3 1 -1 -3 -3 -2 -2 -1 -0 0 1 1 1 2 2 2 2 2 2 1 1 2 2 3 2 2 1
-1 -1 -1 -1 -1 -1 -1 -1 -0 -0 1 1 1 1 1 0 -0 -1 -1 -1 -1 -1 -2 -3 -4 -4 -3 -2 -1 -1 -2 -4 -5 -5 -6 -6 -6 -6 -5 -5 -3 -2 -1 -2 -3 -4 -5 -7 -8 -9 -10 -9 -6 -2 1 -1 -2 -3 -1 1 1 1 -2 -3 -3 -2 -1 -1 -0 1 1 1 1 0 0 0 0 1 1 1 2 2 3 3 2 2
-1 -1 -1 -1 -1 -1 -1 -1 -0 0 1 1 1 1 1 0 0 -0 -1 -1 -1 -1 -1 -1 -2 -4 -6 -6 -5 -3 -2 -3 -4 -5 -5 -5 -4 -4 -3 -3 -2 -2 -1 -1 -2 -2 -3 -4 -5 -6 -6 -6 -6 -5 -3 -3 -4 -4 -3 -2 -1 -0 -0 -1 -1 -1 -1 -1 -1 -0 1 1 1 0 -0 -1 -1 -1 -0 0 1 2 2 2 2 2
-1 -1 -1 -2 -2 -2 -2 -1 -1 0 0 1 1 1 1 1 1 1 1 1 1 1 1 1 2 2 1 -2 -5 -6 -6 -5 -4 -4 -3 -3 -3 -3 -3 -3 -3 -3 -2 -2 -2 -3 -3 -3 -3 -4 -5 -5 -4 -2 1 -0 -2 -3 -4 -3 -0 1 1 -1 -2 -2 -1 -0 -0 0 1 1 1 0 -0 -1 -1 -1 -0 0 1 1 2 2 2 2
-1 -1 -1 -2 -2 -2 -2 -1 -1 -1 -0 -0 -0 0 0 1 1 1 1 1 2 3 3 2 2 3 5 5 2 -2 -5 -5 -4 -3 -1 -1 -1 -1 -2 -3 -4 -5 -5 -4 -3 -2 -2 -2 -2 -3 -3 -4 -3 -2 1 3 3 2 -1 -2 -1 1 3 2 1 -1 -1 -0 0 1 1 1 1 0 -0 -1 -1 -1 0 1 1 1 1 1 2 2
-1 -1 -1 -1 -1 -1 -1 -1 -1 -1 -1 -1 -1 -1 -0 -0 0 0 0 0 0 1 2 2 2 2 3 4 4 3 1 0 -0 -0 0 1 1 1 0 -0 -1 -3 -4 -5 -3 -1 2 2 -0 -2 -3 -1 0 2 3 4 4 4 2 -0 -3 -5 -5 -0 2 2 1 1 1 1 1 1 0 0 -0 -1 -1 -0 0 1 1 1 1 1 1 2
-1 -1 -1 -1 -1 -1 -1 -1 -1 -1 -1 -1 -0 -0 -1 -1 -1 -1 -0 -0 -0 -1 -1 0 2 2 2 3 4 5 6 5 4 4 3 3 3 3 3 4 4 4 3 0 -2 -3 -1 2 3 3 1 1 2 4 5 5 4 3 2 0 -1 -3 -4 -3 -1 -0 1 1 1 1 1 1 1 0 -0 -1 -1 -1 -0 0 1 1 1 1 1 1
-1 -1 -1 -1 -1 -1 -1 -1 -1 -1 -1 -0 -0 -0 -1 -1 -1 -2 -1 -1 -1 -1 -2 -2 -2 -0 1 2 3 5 6 7 6 6 5 6 6 7 7 7 7 7 7 6 4 1 -2 -2 0 3 6 6 6 4 2 1 1 1 1 1 0 0 -0 -1 -2 -2 -1 0 1 1 1 1 1 0 -0 -1 -1 -1 -1 -0 0 1 1 1 1 1
-1 -1 -2 -2 -1 -0 0 0 -0 -1 -1 -1 -1 -1 -1 -1 -1 -2 -2 -2 -2 -2 -1 -2 -3 -4 -4 -2 -1 1 3 5 6 6 7 7 7 7 8 8 8 8 8 8 8 6 3 -0 -2 -1 1 4 6 6 2 -1 -3 -4 -2 -1 0 1 1 -0 -1 -1 -1 -1 0 1 2 3 2 1 -0 -1 -1 -1 -1 -1 -0 0 1 1 1 2
-1 -2 -1 -1 -1 0 0 0 -0 -0 -1 -1 -2 -2 -2 -1 -1 -1 -2 -2 -2 -2 -2 -2 -2 -3 -3 -4 -4 -4 -2 -1 1 3 5 6 5 5 5 6 7 8 8 9 9 8 5 1 -1 -3 -2 -1 0 1 1 -1 -3 -4 -4 -2 -1 0 1 1 0 -0 -1 -1 -0 0 2 2 2 2 2 1 -0 -1 -1 -1 -0 0 1 1 2 2
-1 -1 -1 -1 -0 0 0 0 0 -0 -0 -1 -1 -2 -2 -2 -2 -2 -2 -2 -2 -2 -2 -2 -1 -2 -2 -3 -3 -3 -3 -2 -2 -0 1 1 2 2 3 4 5 6 7 8 9 9 8 3 -2 -5 -5 -4 -4 -4 -3 -2 -2 -2 -2 -1 -1 0 1 1 0 0 0 0 0 -0 -0 0 1 1 2 1 0 -0 -1 -1 -0 0 1 2 2 2
-1 -1 -1 -0 0 0 0 0 0 0 0 -0 -1 -1 -2 -2 -2 -2 -2 -2 -3 -3 -3 -3 -2 -2 -2 -2 -2 -2 -1 -0 -0 -0 -1 -1 -1 -1 0 2 4 6 7 8 8 8 9 6 -1 -8 -9 -7 -6 -5 -4 -2 -0 1 1 0 0 0 1 1 1 1 1 1 1 0 -0 -0 -0 0 -0 -0 -0 -0 -1 -1 -1 -0 1 2 2 3
-1 -1 -1 -0 0 0 0 0 0 0 -0 -0 -1 -1 -1 -1 -1 -2 -2 -2 -3 -3 -4 -4 -4 -3 -2 -2 -2 -3 -2 -1 -1 -1 -2 -3 -3 -3 -3 -2 -0 2 4 6 7 8 9 11 5 -3 -12 -11 -8 -5 -3 -0 2 4 4 2 1 0 1 1 1 1 1 1 1 1 1 -0 -1 -2 -2 -2 -1 -0 0 -0 -0 -0 0 1 2 2
-1 -1 -1 -0 -0 0 0 0 0 0 0 -0 -1 -1 -1 -1 -1 -1 -2 -2 -2 -2 -2 -3 -4 -4 -4 -3 -3 -3 -3 -3 -3 -3 -3 -4 -4 -4 -4 -4 -4 -3 -3 -1 0 2 4 8 9 6 -4 -10 -10 -6 -3 -0 2 3 4 2 1 0 1 3 4 3 2 1 1 1 1 -1 -2 -3 -3 -2 -1 -0 0 0 -0 -0 0 1 1 2
Height
3089 3088 3087 3086 3085 3083 3082 3080 3078 3077 3075 3073 3071 3069 3067 3065 3063 3061 3058 3056 3053 3050 3047 3045 3042 3039 3035 3032 3029 3026 3022 3020 3017 3014 3011 3008 3006 3002 2999 2996 2992 2989 2986 2984 2981 2979 2976 2974 2971 2969 2967 2964 2962 2960 2957 2955 2952 2950 2947 2945 2942 2940 2938 2935 2933 2931 2928 2926 2924 2922 2920 2917 2915 2913 2911 2909 2907 2906 2903 2901 2900 2898 2896 2895 2893 2892
3088 3087 3086 3084 3083 3082 3080 3079 3077 3076 3074 3072 3070 3068 3066 3063 3061 3059 3056 3053 3051 3048 3045 3042 3039 3036 3033 3030 3027 3024 3021 3018 3015 3012 3009 3006 3004 3001 2997 2994 2991 2987 2985 2982 2980 2977 2975 2972 2970 2967 2965 2963 2961 2958 2956 2953 2951 2948 2946 2943 2941 2939 2936 2934 2932 2929 2927 2925 2922 2920 2918 2916 2914 2912 2910 2908 2906 2904 2902 2900 2898 2896 2895 2893 2892 2890
3086 3086 3084 3083 3082 3081 3079 3077 3076 3074 3072 3071 3068 3066 3064 3061 3059 3056 3054 3051 3048 3046 3043 3040 3037 3035 3031 3028 3025 3022 3019 3016 3013 3010 3008 3005 3002 2999 2995 2992 2989 2986 2983 2980 2978 2975 2973 2970 2968 2966 2964 2961 2959 2956 2954 2951 2949 2947 2944 2942 2940 2937 2935 2932 2930 2928 2926 2923 2921 2919 2916 2914 2912 2910 2908 2906 2904 2902 2901 2899 2897 2895 2893 2892 2891 2889
3085 3084 3083 3082 3081 3079 3078 3076 3075 3073 3071 3069 3067 3065 3062 3060 3057 3055 3052 3049 3046 3044 3041 3038 3036 3033 3030 3027 3024 3021 3017 3014 3011 3009 3006 3003 3000 2997 2994 2990 2987 2984 2981 2979 2976 2973 2971 2968 2966 2964 2962 2960 2957 2955 2952 2950 2948 2945 2943 2941 2938 2936 2933 2931 2929 2926 2924 2921 2919 2917 2915 2913 2911 2908 2906 2905 2903 2901 2899 2897 2896 2894 2892 2890 2889 2887
3084 3083 3082 3081 3079 3078 3077 3075 3073 3072 3070 3068 3066 3063 3061 3058 3056 3053 3050 3047 3045 3042 3039 3037 3034 3031 3029 3026 3022 3019 3016 3013 3010 3007 3004 3001 2999 2995 2992 2989 2985 2982 2980 2977 2974 2972 2969 2966 2964 2962 2960 2958 2956 2953 2951 2948 2946 2944 2941 2939 2937 2934 2932 2930 2927 2925 2922 2920 2918 2916 2913 2911 2909 2907 2905 2903 2901 2899 2897 2896 2894 2892 2891 2888 2887 2886
3083 3082 3081 3080 3078 3077 3076 3074 3072 3071 3069 3066 3065 3062 3060 3057 3054 3051 3049 3046 3043 3041 3038 3035 3033 3030 3027 3024 3021 3018 3015 3011 3008 3006 3003 3000 2997 2994 2990 2987 2984 2981 2978 2975 2973 2970 2967 2965 2962 2960 2958 2956 2954 2951 2949 2947 2945 2942 2940 2938 2935 2933 2931 2928 2926 2923 2921 2918 2916 2914 2911 2909 2907 2905 2903 2901 2899 2897 2896 2894 2892 2891 2889 2887 2886 2884
3082 3081 3080 3078 3077 3076 3074 3073 3071 3069 3067 3066 3063 3061 3059 3056 3053 3051 3048 3045 3042 3040 3037 3034 3032 3029 3026 3023 3020 3017 3013 3010 3007 3004 3001 2999 2996 2992 2989 2985 2982 2979 2976 2974 2971 2968 2966 2963 2961 2959 2956 2955 2952 2950 2948 2946 2943 2941 2939 2936 2934 2931 2929 2926 2924 2921 2919 2917 2915 2912 2910 2908 2906 2904 2902 2900 2898 2896 2894 2892 2891 2889 2888 2886 2885 2883
3081 3080 3078 3077 3076 3074 3073 3071 3070 3068 3066 3064 3062 3060 3057 3055 3052 3050 3047 3044 3041 3039 3036 3033 3031 3028 3025 3022 3019 3016 3012 3009 3006 3003 3000 2997 2994 2991 2987 2984 2981 2978 2975 2972 2969 2967 2964 2961 2959 2957 2955 2953 2951 2949 2946 2944 2942 2939 2937 2935 2932 2930 2927 2925 2923 2920 2918 2916 2913 2911 2909 2906 2904 2902 2900 2898 2896 2894 2892 2891 2889 2888 2886 2885 2883 2882
3080 3079 3077 3076 3075 3073 3071 3070 3068 3066 3064 3062 3060 3058 3056 3053 3051 3049 3047 3044 3041 3038 3035 3032 3030 3027 3024 3021 3018 3015 3011 3007 3004 3001 2998 2995 2992 2989 2986 2983 2979 2976 2974 2971 2968 2965 2962 2960 2958 2956 2954 2951 2949 2947 2945 2943 2940 2938 2936 2933 2931 2928 2926 2924 2921 2919 2916 2914 2912 2910 2907 2905 2903 2901 2899 2896 2895 2893 2891 2889 2887 2886 2885 2883 2882 2880
3079 3077 3076 3075 3073 3072 3070 3068 3066 3065 3063 3061 3059 3056 3054 3052 3050 3048 3046 3043 3040 3037 3034 3031 3029 3026 3023 3020 3017 3015 3011 3007 3003 3000 2997 2994 2991 2987 2984 2981 2978 2975 2972 2969 2966 2964 2961 2959 2956 2954 2952 2950 2948 2946 2943 2941 2939 2936 2934 2931 2929 2927 2925 2922 2920 2918 2915 2913 2911 2908 2906 2904 2901 2899 2897 2895 2893 2891 2889 2887 2886 2884 2883 2881 2880 2879
3078 3076 3075 3074 3072 3071 3069 3067 3065 3063 3061 3059 3057 3055 3053 3051 3048 3046 3044 3041 3039 3036 3033 3030 3027 3025 3022 3019 3016 3013 3010 3006 3002 2998 2995 2992 2989 2986 2983 2980 2977 2974 2971 2969 2966 2963 2960 2958 2956 2953 2951 2949 2946 2944 2942 2939 2937 2935 2932 2930 2928 2926 2923 2921 2919 2916 2914 2911 2909 2907 2905 2902 2900 2898 2896 2893 2891 2890 2887 2886 2884 2883 2881 2880 2878 2877
3077 3075 3074 3072 3071 3069 3067 3066 3064 3062 3060 3058 3055 3053 3051 3049 3046 3044 3041 3039 3036 3034 3031 3028 3025 3023 3021 3018 3015 3011 3008 3005 3001 2997 2994 2991 2988 2985 2982 2979 2976 2973 2971 2968 2965 2962 2959 2956 2954 2952 2950 2947 2945 2942 2940 2937 2935 2933 2931 2928 2926 2924 2922 2920 2917 2915 2912 2910 2908 2905 2903 2901 2899 2896 2894 2892 2890 2888 2886 2884 2883 2881 2879 2878 2876 2875
3076 3074 3073 3071 3070 3068 3066 3064 3062 3060 3058 3056 3054 3052 3049 3047 3044 3042 3040 3037 3034 3031 3029 3026 3023 3020 3017 3015 3013 3010 3007 3003 3000 2996 2992 2989 2986 2984 2981 2979 2976 2973 2970 2966 2964 2961 2958 2956 2953 2951 2948 2946 2943 2941 2938 2936 2933 2931 2929 2927 2925 2923 2921 2918 2916 2913 2911 2909 2906 2904 2901 2899 2897 2895 2893 2891 2889 2887 2885 2883 2881 2879 2878 2876 2875 2873
3075 3073 3072 3070 3068 3066 3065 3063 3061 3059 3057 3055 3052 3050 3048 3046 3043 3041 3038 3035 3032 3030 3027 3024 3021 3018 3015 3012 3009 3006 3004 3001 2998 2994 2991 2988 2985 2983 2981 2978 2975 2972 2969 2966 2963 2960 2957 2955 2952 2949 2947 2944 2941 2939 2936 2934 2932 2930 2927 2926 2923 2921 2919 2916 2914 2912 2909 2907 2905 2902 2900 2898 2896 2894 2891 2889 2887 2885 2883 2881 2880 2878 2876 2875 2873 2871
3074 3072 3071 3069 3067 3066 3064 3062 3060 3058 3056 3053 3051 3049 3046 3044 3041 3039 3036 3033 3031 3028 3025 3022 3019 3016 3013 3010 3007 3004 3001 2998 2996 2993 2990 2986 2984 2982 2980 2977 2974 2971 2968 2965 2962 2959 2956 2953 2951 2948 2945 2943 2940 2937 2935 2933 2930 2928 2926 2924 2922 2920 2917 2915 2912 2910 2908 2905 2903 2900 2898 2896 2894 2892 2890 2888 2886 2884 2882 2880 2878 2876 2875 2873 2871 2870
3072 3071 3069 3068 3066 3064 3062 3061 3058 3056 3054 3052 3050 3047 3045 3042 3040 3037 3035 3032 3029 3026 3023 3020 3017 3014 3010 3007 3005 3002 2999 2996 2994 2991 2989 2986 2983 2980 2978 2976 2973 2970 2967 2964 2961 2958 2955 2952 2950 2947 2944 2941 2939 2936 2934 2931 2929 2927 2925 2922 2920 2918 2916 2913 2911 2908 2906 2903 2901 2898 2896 2894 2892 2890 2888 2886 2884 2882 2881 2879 2877 2875 2873 2871 2870 2868
3071 3070 3068 3067 3065 3063 3061 3059 3057 3055 3053 3051 3049 3046 3044 3041 3038 3036 3033 3030 3027 3024 3021 3018 3015 3012 3009 3006 3002 3000 2997 2994 2992 2990 2987 2985 2982 2980 2977 2975 2973 2970 2966 2963 2960 2957 2955 2951 2949 2946 2943 2941 2938 2935 2933 2930 2928 2925 2923 2921 2918 2916 2913 2911 2909 2906 2904 2901 2899 2897 2894 2892 2890 2888 2886 2884 2882 2881 2879 2877 2875 2873 2871 2870 2868 2867
3070 3069 3067 3066 3064 3062 3060 3058 3056 3054 3052 3050 3047 3045 3042 3040 3037 3034 3031 3028 3025 3022 3019 3016 3013 3010 3007 3004 3001 2997 2995 2992 2990 2988 2986 2983 2981 2978 2976 2974 2972 2969 2966 2963 2960 2957 2954 2951 2948 2945 2942 2940 2937 2934 2932 2929 2926 2924 2921 2919 2916 2914 2911 2909 2906 2904 2902 2900 2897 2895 2893 2891 2888 2886 2884 2882 2881 2879 2877 2875 2874 2872 2870 2868 2866 2865
3069 3068 3066 3064 3063 3061 3059 3057 3055 3052 3051 3048 3046 3043 3041 3038 3036 3033 3030 3027 3024 3021 3018 3014 3011 3008 3005 3002 2999 2996 2993 2991 2989 2987 2985 2982 2979 2976 2975 2973 2971 2968 2965 2962 2959 2956 2953 2950 2947 2945 2942 2939 2936 2934 2931 2928 2925 2922 2920 2917 2914 2912 2909 2907 2905 2902 2900 2898 2896 2893 2891 2889 2886 2885 2883 2881 2879 2877 2875 2874 2872 2870 2868 2866 2865 2863
3068 3066 3065 3063 3061 3059 3057 3056 3053 3051 3049 3047 3045 3042 3040 3037 3034 3031 3028 3025 3022 3019 3016 3013 3010 3007 3004 3001 2998 2995 2992 2990 2987 2985 2983 2981 2978 2976 2973 2971 2969 2967 2964 2962 2959 2956 2953 2950 2947 2944 2941 2938 2935 2933 2930 2927 2924 2921 2918 2915 2912 2910 2907 2905 2903 2900 2898 2896 2894 2891 2889 2887 2885 2883 2881 2879 2877 2875 2874 2872 2870 2868 2866 2865 2863 2861
3067 3065 3064 3062 3060 3058 3056 3054 3052 3050 3048 3046 3043 3041 3038 3036 3033 3030 3027 3025 3021 3018 3016 3012 3009 3006 3002 3000 2997 2994 2991 2989 2986 2983 2981 2979 2976 2974 2972 2970 2968 2966 2963 2961 2958 2955 2952 2949 2946 2943 2941 2937 2935 2931 2929 2926 2923 2920 2917 2914 2911 2908 2906 2903 2901 2899 2896 2894 2892 2890 2887 2886 2883 2881 2879 2877 2876 2874 2872 2870 2868 2866 2865 2863 2861 2860
3066 3064 3062 3061 3059 3057 3055 3053 3051 3049 3047 3044 3042 3039 3036 3034 3031 3028 3026 3023 3020 3017 3014 3011 3008 3005 3002 2999 2996 2993 2990 2987 2984 2981 2979 2977 2975 2972 2970 2968 2966 2965 2962 2960 2957 2954 2952 2949 2946 2943 2940 2937 2934 2931 2927 2925 2921 2919 2916 2913 2910 2907 2905 2902 2899 2897 2894 2892 2890 2888 2886 2884 2881 2879 2877 2876 2874 2872 2870 2868 2866 2865 2863 2861 2860 2858
3065 3063 3061 3060 3058 3056 3054 3052 3050 3048 3046 3043 3041 3038 3035 3032 3030 3027 3024 3021 3018 3016 3013 3010 3007 3004 3001 2998 2994 2991 2988 2985 2982 2980 2978 2976 2973 2971 2968 2966 2964 2962 2961 2958 2956 2953 2951 2948 2946 2942 2939 2936 2933 2930 2926 2923 2921 2917 2915 2911 2909 2906 2903 2901 2898 2895 2893 2891 2888 2886 2884 2882 2880 2878 2876 2874 2872 2870 2868 2866 2865 2863 2861 2860 2858 2857
3063 3062 3060 3059 3057 3055 3053 3051 3049 3047 3045 3042 3039 3037 3034 3031 3028 3026 3023 3020 3017 3015 3012 3009 3006 3002 2998 2995 2992 2989 2986 2984 2981 2978 2976 2974 2972 2969 2966 2964 2961 2960 2958 2956 2954 2952 2950 2947 2945 2941 2938 2935 2932 2929 2925 2922 2919 2916 2913 2910 2907 2905 2902 2899 2896 2894 2891 2889 2886 2884 2882 2880 2878 2876 2874 2872 2870 2868 2866 2865 2863 2861 2860 2858 2857 2855
3062 3061 3059 3057 3056 3054 3052 3050 3048 3046 3043 3041 3038 3035 3032 3030 3027 3024 3021 3018 3016 3013 3010 3007 3004 3001 2997 2994 2991 2987 2985 2982 2980 2978 2975 2972 2970 2967 2965 2962 2959 2957 2956 2954 2952 2950 2948 2946 2943 2940 2937 2934 2931 2927 2924 2921 2918 2915 2912 2909 2906 2903 2901 2898 2895 2893 2890 2887 2885 2883 2881 2879 2876 2874 2872 2870 2868 2866 2865 2863 2861 2860 2858 2857 2855 2854
3061 3060 3058 3056 3055 3053 3051 3049 3046 3044 3041 3039 3036 3034 3031 3028 3026 3023 3020 3016 3013 3011 3007 3005 3002 2999 2996 2993 2990 2987 2984 2981 2979 2976 2974 2971 2968 2966 2963 2960 2957 2955 2953 2952 2950 2948 2946 2943 2941 2938 2935 2932 2929 2926 2923 2920 2917 2914 2911 2908 2905 2902 2899 2896 2894 2891 2889 2886 2883 2881 2879 2877 2875 2873 2871 2869 2867 2865 2863 2862 2860 2858 2857 2855 2854 2852
3060 3059 3057 3055 3053 3051 3049 3047 3045 3042 3040 3037 3035 3032 3030 3027 3024 3021 3018 3015 3012 3009 3006 3003 3000 2997 2995 2992 2989 2986 2983 2980 2977 2975 2972 2969 2966 2964 2961 2958 2956 2953 2951 2949 2948 2946 2943 2941 2938 2936 2933 2930 2927 2925 2922 2919 2916 2914 2911 2908 2904 2901 2898 2895 2892 2890 2887 2884 2882 2879 2877 2875 2873 2871 2869 2867 2865 2863 2862 2860 2859 2857 2856 2854 2852 2851
3059 3057 3056 3054 3052 3050 3048 3046 3043 3041 3039 3036 3033 3031 3028 3025 3022 3019 3016 3014 3011 3007 3004 3001 2998 2996 2993 2990 2987 2984 2981 2978 2975 2972 2970 2968 2966 2963 2960 2957 2954 2951 2948 2946 2945 2944 2942 2939 2936 2933 2931 2928 2926 2923 2921 2918 2916 2913 2910 2907 2903 2900 2897 2894 2891 2888 2886 2883 2880 2878 2875 2873 2871 2869 2867 2866 2864 2862 2860 2859 2857 2856 2854 2852 2851 2850
3058 3056 3054 3052 3050 3048 3046 3044 3042 3040 3037 3035 3032 3030 3027 3024 3021 3018 3015 3012 3009 3006 3003 3000 2997 2994 2991 2989 2986 2983 2980 2977 2974 2971 2969 2966 2964 2962 2959 2956 2953 2950 2947 2944 2942 2941 2940 2938 2935 2932 2929 2927 2924 2921 2919 2916 2914 2911 2908 2905 2902 2899 2895 2892 2889 2886 2884 2881 2879 2876 2874 2871 2869 2867 2865 2864 2862 2860 2859 2857 2856 2854 2852 2851 2850 2848
3056 3055 3053 3051 3049 3047 3046 3043 3041 3039 3036 3034 3031 3028 3026 3022 3020 3016 3013 3010 3007 3004 3001 2998 2995 2992 2990 2987 2984 2981 2978 2976 2973 2971 2968 2966 2963 2961 2957 2955 2952 2949 2946 2942 2939 2937 2937 2936 2934 2931 2928 2925 2922 2920 2916 2914 2911 2908 2906 2902 2900 2896 2893 2890 2887 2884 2882 2879 2877 2874 2872 2870 2867 2865 2863 2861 2860 2859 2857 2855 2854 2852 2851 2850 2848 2847
3056 3054 3052 3050 3049 3047 3045 3043 3040 3038 3035 3032 3030 3027 3024 3021 3018 3015 3012 3009 3006 3002 3000 2997 2994 2991 2988 2985 2982 2979 2976 2974 2972 2970 2967 2965 2962 2960 2957 2954 2951 2948 2945 2941 2938 2935 2933 2932 2931 2929 2926 2923 2920 2917 2914 2911 2908 2905 2902 2899 2896 2893 2891 2887 2885 2882 2879 2877 2875 2872 2870 2868 2865 2863 2861 2860 2858 2856 2855 2854 2852 2851 2850 2848 2847 2846
3055 3053 3051 3050 3048 3046 3044 3041 3039 3036 3033 3031 3028 3025 3022 3019 3016 3013 3010 3007 3004 3001 2998 2995 2993 2990 2987 2985 2982 2979 2976 2973 2971 2969 2966 2964 2961 2959 2956 2953 2950 2947 2945 2941 2938 2934 2931 2928 2927 2926 2924 2921 2918 2915 2911 2909 2906 2902 2899 2896 2893 2890 2887 2885 2882 2879 2876 2874 2872 2870 2868 2866 2863 2861 2859 2857 2856 2855 2853 2852 2850 2849 2848 2847 2846 2845
3054 3052 3051 3049 3047 3045 3042 3040 3037 3035 3032 3029 3026 3024 3021 3018 3015 3012 3009 3006 3003 3000 2997 2994 2991 2988 2986 2984 2981 2979 2976 2973 2971 2968 2966 2963 2961 2958 2956 2952 2949 2946 2944 2941 2938 2934 2931 2927 2925 2923 2921 2920 2916 2913 2909 2906 2903 2900 2896 2893 2890 2887 2884 2881 2879 2876 2874 2871 2869 2867 2866 2864 2861 2860 2857 2856 2854 2853 2851 2850 2849 2847 2846 2845 2844 2843
3053 3051 3050 3048 3046 3044 3041 3039 3036 3034 3031 3028 3026 3023 3020 3017 3014 3011 3008 3005 3002 2999 2996 2993 2990 2987 2984 2982 2980 2978 2976 2973 2970 2968 2965 2962 2960 2957 2955 2952 2949 2946 2943 2940 2937 2934 2931 2927 2924 2921 2918 2917 2915 2912 2908 2904 2900 2897 2894 2891 2887 2884 2881 2878 2876 2873 2871 2869 2866 2865 2863 2861 2860 2858 2856 2854 2852 2851 2850 2848 2847 2846 2844 2843 2842 2842
3052 3050 3049 3047 3045 3042 3040 3038 3035 3033 3031 3028 3025 3022 3020 3016 3013 3010 3007 3004 3001 2998 2995 2992 2989 2986 2984 2981 2979 2977 2974 2972 2970 2967 2965 2962 2959 2957 2954 2951 2948 2945 2942 2939 2936 2933 2930 2927 2924 2920 2917 2914 2912 2910 2906 2902 2898 2895 2891 2888 2885 2882 2878 2876 2873 2870 2868 2866 2864 2862 2861 2859 2857 2856 2854 2852 2851 2849 2848 2847 2845 2844 2843 2842 2841 2840
3051 3049 3047 3046 3043 3041 3039 3037 3035 3032 3030 3027 3025 3022 3019 3016 3013 3010 3006 3003 3000 2997 2994 2991 2988 2986 2984 2981 2979 2976 2974 2971 2969 2967 2964 2962 2959 2956 2953 2951 2948 2945 2941 2938 2935 2932 2929 2926 2923 2920 2916 2912 2909 2906 2903 2900 2897 2893 2889 2886 2883 2879 2876 2873 2871 2868 2866 2864 2862 2861 2859 2857 2856 2854 2852 2851 2849 2848 2846 2845 2844 2842 2841 2840 2839 2838
3050 3048 3046 3045 3042 3041 3038 3036 3034 3032 3029 3027 3024 3021 3018 3015 3012 3009 3006 3002 2999 2996 2994 2991 2988 2986 2983 2981 2979 2976 2974 2971 2969 2966 2964 2961 2959 2956 2953 2950 2948 2945 2941 2938 2935 2931 2928 2924 2921 2918 2915 2911 2908 2904 2901 2897 2894 2891 2887 2884 2881 2877 2874 2871 2869 2866 2864 2862 2861 2859 2857 2856 2854 2852 2851 2849 2848 2846 2845 2844 2842 2841 2840 2838 2837 2837
3049 3047 3046 3044 3042 3040 3037 3036 3033 3031 3029 3026 3023 3020 3017 3014 3011 3008 3005 3001 2999 2996 2993 2991 2988 2986 2983 2981 2978 2976 2973 2971 2969 2966 2964 2961 2958 2955 2953 2950 2947 2945 2941 2938 2935 2931 2927 2923 2919 2915 2912 2909 2906 2903 2899 2895 2892 2889 2886 2883 2880 2876 2873 2870 2868 2865 2863 2861 2859 2857 2856 2854 2852 2851 2849 2848 2846 2845 2844 2843 2841 2840 2838 2837 2836 2835
3048 3047 3045 3043 3041 3039 3037 3035 3032 3030 3027 3025 3022 3019 3016 3013 3010 3007 3004 3001 2998 2996 2993 2991 2988 2986 2983 2980 2978 2975 2973 2971 2969 2966 2963 2961 2958 2955 2953 2950 2947 2944 2941 2938 2934 2930 2926 2922 2917 2914 2910 2906 2904 2901 2897 2893 2890 2887 2884 2881 2878 2875 2872 2869 2867 2864 2862 2860 2858 2856 2855 2853 2851 2850 2848 2846 2845 2844 2843 2841 2840 2839 2837 2836 2835 2834
3048 3046 3044 3042 3040 3038 3036 3034 3031 3029 3026 3023 3021 3018 3015 3012 3009 3006 3003 3001 2998 2996 2993 2991 2988 2985 2983 2981 2978 2976 2973 2971 2968 2966 2963 2961 2958 2955 2953 2950 2947 2944 2941 2937 2933 2929 2925 2920 2916 2912 2908 2905 2902 2899 2896 2892 2889 2885 2882 2879 2876 2874 2871 2868 2866 2863 2861 2859 2857 2856 2854 2852 2851 2849 2847 2845 2844 2842 2841 2840 2839 2837 2836 2835 2834 2833
3047 3045 3043 3041 3040 3037 3035 3033 3030 3027 3025 3022 3019 3016 3014 3011 3008 3006 3003 3000 2998 2996 2993 2991 2988 2985 2982 2980 2978 2976 2973 2970 2968 2966 2963 2960 2958 2955 2952 2949 2946 2943 2940 2936 2932 2928 2923 2919 2914 2910 2907 2904 2901 2897 2894 2891 2888 2884 2881 2878 2875 2872 2870 2867 2865 2862 2860 2858 2856 2855 2853 2851 2850 2848 2846 2844 2843 2841 2840 2839 2837 2836 2835 2834 2832 2831
3046 3044 3043 3041 3039 3036 3034 3031 3029 3026 3023 3021 3018 3015 3012 3010 3007 3005 3002 3000 2998 2995 2993 2991 2988 2986 2983 2980 2977 2975 2973 2970 2968 2965 2963 2960 2957 2954 2951 2948 2945 2942 2938 2935 2931 2926 2922 2918 2913 2909 2906 2902 2900 2896 2893 2890 2887 2883 2880 2876 2874 2871 2869 2866 2864 2862 2860 2858 2856 2854 2852 2851 2849 2847 2845 2843 2842 2840 2839 2837 2836 2835 2833 2832 2831 2830
3045 3044 3042 3040 3038 3036 3033 3031 3028 3025 3022 3020 3017 3014 3011 3009 3006 3004 3001 2999 2997 2995 2992 2990 2987 2985 2982 2980 2977 2975 2972 2970 2967 2965 2962 2959 2956 2953 2950 2947 2944 2941 2937 2933 2929 2925 2921 2917 2913 2909 2905 2901 2898 2895 2892 2889 2886 2882 2878 2875 2872 2869 2867 2865 2863 2861 2859 2857 2855 2853 2851 2850 2848 2846 2845 2843 2841 2839 2838 2836 2835 2834 2832 2831 2830 2829
3045 3043 3041 3039 3037 3035 3032 3030 3027 3024 3021 3019 3016 3013 3010 3008 3005 3003 3001 2998 2996 2994 2991 2989 2986 2984 2981 2979 2977 2975 2972 2970 2967 2964 2961 2958 2956 2952 2949 2946 2943 2939 2936 2932 2928 2924 2919 2915 2911 2908 2904 2901 2898 2894 2891 2887 2884 2881 2877 2874 2871 2869 2866 2864 2862 2860 2858 2856 2854 2852 2851 2849 2847 2846 2844 2842 2840 2839 2837 2836 2834 2833 2831 2830 2829 2828
3044 3042 3041 3039 3036 3034 3031 3029 3026 3024 3021 3018 3015 3012 3010 3007 3005 3002 3000 2997 2995 2992 2990 2987 2985 2982 2980 2978 2976 2974 2971 2969 2966 2963 2960 2957 2955 2951 2948 2945 2942 2938 2934 2931 2927 2923 2918 2914 2910 2906 2903 2900 2897 2894 2890 2886 2883 2880 2877 2874 2871 2869 2866 2864 2861 2859 2857 2856 2854 2852 2850 2848 2847 2845 2843 2841 2840 2838 2836 2835 2834 2832 2831 2830 2829 2828
3043 3041 3040 3038 3036 3033 3031 3028 3026 3023 3020 3017 3014 3011 3009 3006 3004 3002 2999 2997 2994 2992 2989 2987 2984 2982 2979 2977 2974 2972 2970 2967 2965 2962 2959 2956 2953 2950 2947 2944 2940 2937 2933 2929 2926 2921 2917 2913 2909 2905 2902 2899 2896 2892 2889 2886 2882 2879 2876 2874 2871 2869 2866 2864 2861 2859 2857 2855 2853 2851 2849 2848 2846 2845 2843 2841 2839 2837 2836 2835 2833 2832 2831 2830 2828 2827
3042 3041 3039 3037 3035 3033 3030 3028 3025 3022 3020 3016 3014 3011 3008 3006 3003 3001 2999 2996 2994 2991 2989 2986 2984 2981 2979 2976 2974 2971 2968 2966 2963 2961 2958 2955 2952 2949 2946 2942 2939 2936 2932 2928 2925 2921 2916 2911 2907 2904 2901 2897 2895 2891 2888 2885 2881 2879 2876 2874 2871 2869 2866 2864 2861 2859 2857 2855 2852 2851 2849 2847 2846 2844 2842 2841 2839 2837 2836 2834 2833 2831 2830 2829 2828 2827
3042 3040 3038 3036 3034 3032 3030 3027 3025 3022 3019 3016 3013 3011 3008 3006 3003 3001 2998 2996 2993 2991 2988 2986 2983 2981 2978 2976 2973 2971 2968 2965 2962 2960 2957 2954 2951 2948 2945 2941 2938 2934 2931 2927 2923 2920 2916 2911 2906 2902 2899 2896 2893 2891 2888 2885 2881 2879 2876 2874 2871 2869 2866 2864 2861 2859 2856 2854 2852 2850 2848 2846 2845 2843 2841 2840 2838 2837 2835 2834 2832 2831 2830 2829 2828 2827
3041 3039 3037 3036 3033 3031 3029 3026 3024 3021 3018 3016 3013 3010 3007 3005 3003 3001 2998 2996 2993 2990 2988 2985 2983 2981 2978 2976 2973 2970 2967 2965 2962 2959 2956 2953 2950 2947 2944 2940 2937 2933 2930 2926 2922 2918 2915 2911 2906 2902 2899 2895 2892 2889 2887 2884 2882 2879 2876 2874 2871 2869 2866 2863 2861 2858 2856 2853 2851 2849 2847 2846 2844 2842 2841 2840 2838 2836 2835 2833 2832 2831 2830 2829 2828 2827
3040 3038 3036 3035 3032 3030 3028 3026 3023 3020 3018 3015 3012 3010 3007 3005 3002 3000 2998 2995 2993 2990 2988 2985 2983 2980 2978 2975 2972 2970 2967 2964 2961 2958 2955 2952 2949 2946 2942 2939 2935 2932 2928 2925 2921 2918 2914 2911 2906 2902 2898 2895 2892 2889 2886 2884 2881 2879 2876 2874 2871 2868 2866 2863 2861 2858 2855 2853 2851 2849 2847 2845 2843 2842 2841 2839 2838 2836 2835 2833 2832 2831 2831 2830 2829 2828
3040 3038 3036 3034 3032 3030 3027 3025 3022 3020 3017 3014 3011 3009 3007 3005 3002 3000 2997 2995 2992 2990 2987 2985 2982 2980 2977 2975 2972 2969 2966 2963 2961 2957 2954 2951 2948 2945 2941 2937 2934 2930 2926 2923 2920 2917 2914 2911 2907 2903 2898 2895 2892 2889 2886 2884 2881 2879 2876 2874 2871 2868 2866 2863 2861 2858 2855 2852 2850 2848 2846 2844 2843 2841 2840 2839 2838 2836 2835 2834 2832 2831 2831 2830 2829 2828